Back to catalog

STARLINK-32323

AliveCommunicationsVLEO
NORAD 61677·PAYLOAD·🇺🇸 United States

Launched Oct 26, 2024 from Cape Canaveral Space Force Station

Loading…

Next Passes (next 24 hours)

TLE

FreshSource: CelesTrak SupGP

Epoch: Sep 14, 2026, 15:24 UTC

1 61677C 24193S   26257.64215278 -.00000405  00000+0 -11981-4 0  2574
2 61677  53.1579 288.8553 0001239  82.4989 123.9369 15.34383042    10

Track STARLINK-32323 in real time with AllMySat

Download on the App Store